Starlink 5995

operational
NORAD ID: 56456 Int'l Des: 2023-064 Owner: SPXS Country: US Constellation: starlink
LEOCIRCULAR

Starlink 5995について

説明を読み込み中...

リアルタイム位置

3D地球を読み込み中...

次回通過

高度履歴

Altitude vs Time

uPlot chart will show altitude changes over time

軌道要素

1 56456U 23064J 26035.83581541 -.00111260 00000-0 -96780-2 0 9997
2 56456 69.9980 227.3369 0002024 178.1381 181.9785 14.97473645150328
Epoch: Feb 4, 2026 • Age: 7 hours

現在のステータス

高度 582.2 km
速度 7.57 km/s
衛星直下点 -24.21°S, 130.17°W
打ち上げ日 May 10, 2023
運用期間 2.7 years
タイプ internet

技術仕様

分類 Payload
質量 305.00 kg
乾燥質量 290.00 kg
総質量 305.00 kg
長さ 0.20 m
直径 2.80 m
スパン 9.00 m
形状 Box + pan
製造者 SPXS
バスタイプ Starlink
フェーズステータス In Orbit
所有者/国 SPXS/US

大規模コンステレーション

Loading constellations...